CAPE
1689 1673 1722 1624 1625 1602 1584 1512 1506 1481 1373 1275 1250 941 594 244 142 174 280 325 276 245
1690 1736 1761 1718 1566 1412 1352 1390 1324 1310 1232 948 571 367 365 42 176 267 433 457 423 465
1820 1765 1635 1323 1071 992 1052 979 1072 910 604 305 175 183 288 140 332 453 508 441 446 482
1355 1231 1100 1044 1016 960 912 776 532 314 194 60 88 214 435 493 446 415 549 357 360 370
993 913 879 828 772 598 390 221 97 14 5 27 184 327 292 278 258 300 122 305 234 254
875 819 704 537 346 211 139 18 0 10 43 48 126 313 402 352 239 25 176 315 241 184
585 538 435 255 118 48 6 10 21 39 39 113 267 388 530 145 404 398 349 349 325 291
213 196 141 90 56 35 5 10 39 77 135 293 453 114 342 389 419 40 298 430 420 401
100 117 121 125 89 12 23 76 100 204 98 253 34 0 0 40 69 331 273 410 386 416
83 95 99 32 37 19 73 63 172 173 42 243 288 0 0 0 33 93 123 108 107 95
51 25 20 10 27 72 31 92 162 178 244 380 11 0 0 11 48 15 15 52 72 84
31 21 27 19 47 84 35 87 113 170 310 324 48 0 0 9 8 2 1 0 10 23
29 8 18 32 37 54 101 62 88 179 251 10 55 0 0 5 4 1 2 3 2 0
62 26 23 34 51 23 59 46 126 156 208 67 52 0 0 3 3 3 2 1 2 0
CIN
-164 -126 -124 -122 -102 -63 -29 -22 -6 -0 -0 -0 -0 -1 -9 -6 -5 -2 -1 -1 -1 -1
-126 -104 -88 -73 -52 -34 -22 -3 -1 -0 -1 -1 -10 -10 -3 -26 -1 -1 -1 -1 -1 -0
-79 -67 -48 -56 -72 -55 -22 -12 -1 -1 -10 -36 -27 -7 -2 -1 -1 -1 -1 -1 -1 -1
-82 -66 -50 -42 -27 -18 -9 -6 -14 -46 -57 -73 -30 -2 -0 -1 -0 -1 -0 -1 -0 -1
-69 -50 -27 -14 -8 -12 -36 -74 -113 -144 -139 -71 -0 -1 -1 -1 -2 -1 -15 -1 -1 -1
-18 -5 -5 -13 -41 -69 -99 -167 -0 -106 -66 -45 -2 -1 -2 -5 -10 -57 -13 -2 -1 -2
-12 -9 -12 -44 -106 -172 -213 -143 -88 -64 -58 -7 -1 -0 -0 -32 -0 -0 -1 -1 -0 -1
-65 -62 -77 -110 -133 -122 -1 -1 -58 -18 -6 -1 -0 -18 -7 -0 -0 -46 -2 -1 -1 -1
-128 -96 -54 -36 -49 -1 -2 -6 -4 -1 -2 -2 -8 -0 -0 -21 -13 -0 -1 -0 -1 -8
-123 -101 -75 -85 -68 -2 -14 -3 -1 -1 -1 -1 -6 -0 -0 -0 -44 -17 -16 -24 -23 -29
-151 -190 -188 -1 -1 -53 -33 -2 -6 -1 -0 -1 -72 -0 -0 -70 -32 -62 -52 -29 -21 -22
-250 -45 -108 -1 -104 -34 -15 -13 -2 -1 -1 -1 -34 -0 -0 -77 -70 -55 -0 -0 -55 -38
-246 -3 -3 -2 -1 -37 -8 -12 -5 -1 -2 -61 -17 -0 -0 -31 -39 -0 -0 -0 -0 -0
-126 -160 -30 -13 -2 -2 -2 -2 -1 -0 -3 -12 -8 -0 -0 -0 -0 -0 -0 -0 -0 -0
Wind_Speed
3 3 2 2 2 3 3 3 4 3 3 5 6 8 9 7 6 5 5 5 6 8
3 3 4 5 5 5 5 5 5 4 5 6 7 7 6 6 5 5 5 5 6 7
7 7 7 6 6 7 7 6 5 6 6 7 6 6 6 6 5 5 6 6 7 8
8 8 8 8 8 7 7 7 6 6 7 7 7 7 6 6 6 5 6 6 8 12
9 9 8 8 8 7 7 8 7 8 8 8 8 7 6 5 5 8 5 8 12 13
9 9 9 8 8 7 8 8 9 9 8 9 9 8 7 9 8 7 4 10 13 17
9 8 8 8 8 8 9 9 9 9 9 10 10 13 12 10 9 8 6 6 7 18
9 9 9 9 9 9 8 8 8 9 10 11 12 14 15 13 11 9 9 8 4 24
12 11 10 10 11 11 10 9 9 9 11 12 15 16 15 15 13 15 21 23 14 11
12 12 12 12 13 13 12 10 9 10 11 13 16 16 16 14 13 11 6 8 6 6
13 12 11 12 13 14 11 10 8 10 12 14 16 16 15 12 14 14 10 9 6 7
12 11 11 12 13 12 12 8 9 11 12 15 15 14 15 12 14 13 13 8 13 10
12 13 12 13 12 10 10 7 10 10 13 13 13 16 10 19 13 14 9 9 12 16
13 13 13 13 10 11 12 6 10 11 11 11 10 15 12 16 20 21 17 14 18 18
Wind_Direction
313 312 336 8 56 47 60 72 95 75 32 359 352 345 347 355 10 34 28 34 32 20
22 37 49 66 52 45 52 62 63 43 12 359 354 360 13 21 34 23 45 58 56 56
58 64 67 60 53 54 58 54 50 24 10 5 12 32 43 31 28 33 70 53 65 83
60 61 62 63 57 50 43 41 41 28 23 27 38 43 47 45 44 78 45 77 91 125
61 62 58 51 42 42 38 42 36 42 42 46 43 57 62 63 38 352 98 113 124 124
57 56 55 50 41 36 43 44 56 49 39 38 26 42 52 8 1 16 53 126 130 141
50 49 45 47 53 54 57 63 57 35 21 23 19 11 30 16 34 73 64 83 92 143
48 52 59 63 63 58 57 56 43 26 22 12 18 30 16 17 41 23 318 310 67 176
60 65 67 70 76 78 71 58 44 13 15 1 5 10 10 357 55 116 159 212 262 270
64 69 76 80 91 92 78 63 44 18 357 0 6 4 14 334 330 149 278 55 47 298
68 69 69 78 89 88 70 64 28 16 355 356 346 7 2 354 55 53 30 43 319 287
59 61 67 84 86 76 77 41 38 18 345 349 354 359 15 8 43 40 38 323 253 262
65 65 72 86 86 64 68 29 50 2 2 335 350 35 301 140 44 51 8 277 253 237
64 72 75 80 68 79 99 31 58 39 320 291 269 147 229 184 130 150 196 232 213 220